Location: Sagn�
(15.2046°N, 12.7898°W)
Time: 13:17:11
(UTC+00:00)

SL-16 R/B - Pass Details

Date: 08 May 2021
Orbit: 842 x 848 km, 71.0° (Epoch: 14 June)

Event Time Altitude Azimuth Distance (km) Brightness Sun altitude
Rises 19:21:08 0° 351° (N) 3,395 5.8 -3.2°
Reaches altitude 10° 19:23:38 10° 356° (N) 2,459 5.0 -3.8°
Maximum altitude 19:29:08 54° 72° (ENE) 1,015 2.4 -5.0°
Drops below altitude 10° 19:34:37 10° 149° (SSE) 2,453 4.2 -6.3°
Sets 19:37:07 0° 154° (SSE) 3,386 4.9 -6.8°
